Date String (YYYY-MM-DD hh:mm:ss) UTC,Instrument flags,Ambient pressure (hPa),Sample flow (lpm),Bypass flow (lpm),Sample temperature (°C),Ambient temperature (°C),ASC tube jacket temperature (°C),LED temperature (°C),Box temperature (°C),Sample RH (%),Span deviation,Mass concentration (μg/m³),Mass concentration (μg/m³),Mass concentration (μg/m³)
DateTimeUTC,F1_M11,P_M11,Q1_M11,Q2_M11,T1_M11,T2_M11,T3_M11,T4_M11,T5_M11,U1_M11,ZSPAN_M11,X0_M11,X2_M11,X1_M11
2021-11-26 11:00:00,,0829.4,4.99,0.00,26.4,25.5,00.0,35.4,28.1,09.2,0000.0,0001.96,0000.72,0000.45
2021-11-26 11:01:00,,0829.5,5.00,0.00,26.3,25.5,00.0,35.4,28.1,09.2,0000.0,0001.90,0000.72,0000.45
2021-11-26 11:02:00,,0829.5,5.00,0.00,26.3,25.5,00.0,35.4,28.1,09.2,0000.0,0001.97,0000.72,0000.46
2021-11-26 11:03:00,,0829.5,4.99,0.00,26.3,25.5,00.0,35.4,28.1,09.2,0000.0,0002.03,0000.72,0000.46
2021-11-26 11:04:00,,0829.5,5.00,0.00,26.3,25.5,00.0,35.4,28.1,09.1,0000.0,0002.01,0000.71,0000.46
2021-11-26 11:05:00,,0829.4,5.01,0.00,26.3,25.5,00.0,35.4,28.1,09.1,0000.0,0002.03,0000.71,0000.46
2021-11-26 11:06:00,,0829.5,5.00,0.00,26.3,25.5,00.0,35.4,28.1,09.1,0000.0,0002.02,0000.71,0000.46
2021-11-26 11:07:00,,0829.5,4.99,0.00,26.3,25.5,00.0,35.4,28.1,09.1,0000.0,0001.24,0000.66,0000.45
2021-11-26 11:08:00,,0829.5,5.01,0.00,26.4,25.5,00.0,35.4,28.1,09.1,0000.0,0001.20,0000.64,0000.43
2021-11-26 11:09:00,,0829.5,5.00,0.00,26.3,25.5,00.0,35.4,28.1,09.1,0000.0,0001.30,0000.67,0000.44
2021-11-26 11:10:00,,0829.5,5.01,0.00,26.4,25.5,00.0,35.4,28.1,09.1,0000.0,0001.27,0000.66,0000.44
2021-11-26 11:11:00,,0829.5,4.99,0.00,26.4,25.5,00.0,35.4,28.1,09.0,0000.0,0001.31,0000.68,0000.44
2021-11-26 11:12:00,,0829.5,5.01,0.00,26.4,25.5,00.0,35.4,28.1,09.0,0000.0,0001.35,0000.69,0000.44
2021-11-26 11:13:00,,0829.5,5.01,0.00,26.4,25.5,00.0,35.4,28.1,09.0,0000.0,0001.31,0000.69,0000.44
2021-11-26 11:14:00,,0829.4,5.00,0.00,26.4,25.4,00.0,35.4,28.2,08.9,0000.0,0001.19,0000.67,0000.45
2021-11-26 11:15:00,,0829.5,5.00,0.00,26.4,25.5,00.0,35.3,28.1,08.9,0000.0,0001.18,0000.69,0000.45
2021-11-26 11:16:00,,0829.5,5.00,0.00,26.4,25.5,00.0,35.4,28.1,08.9,0000.0,0001.33,0000.72,0000.46
2021-11-26 11:17:00,,0829.5,5.01,0.00,26.4,25.4,00.0,35.4,28.1,08.9,0000.0,0001.38,0000.74,0000.47
2021-11-26 11:18:00,,0829.5,4.99,0.00,26.3,25.4,00.0,35.4,28.1,08.9,0000.0,0001.36,0000.74,0000.48
2021-11-26 11:19:00,,0829.5,5.01,0.00,26.4,25.4,00.0,35.3,28.1,08.9,0000.0,0001.46,0000.78,0000.49
2021-11-26 11:20:00,,0829.5,4.99,0.00,26.4,25.4,00.0,35.3,28.1,08.9,0000.0,0001.37,0000.75,0000.50
2021-11-26 11:21:00,,0829.5,5.01,0.00,26.3,25.4,00.0,35.3,28.1,08.9,0000.0,0001.43,0000.78,0000.51
2021-11-26 11:22:00,,0829.5,4.99,0.00,26.3,25.4,00.0,35.3,28.1,08.9,0000.0,0001.53,0000.79,0000.52
2021-11-26 11:23:00,,0829.5,5.00,0.00,26.4,25.4,00.0,35.3,28.1,08.9,0000.0,0001.51,0000.77,0000.52
2021-11-26 11:24:00,,0829.5,5.00,0.00,26.4,25.4,00.0,35.3,28.1,08.9,0000.0,0001.47,0000.76,0000.51
2021-11-26 11:25:00,,0829.5,5.00,0.00,26.3,25.4,00.0,35.3,28.1,08.9,0000.0,0001.48,0000.76,0000.50
2021-11-26 11:26:00,,0829.5,4.99,0.00,26.3,25.4,00.0,35.3,28.1,08.9,0000.0,0001.50,0000.76,0000.50
2021-11-26 11:27:00,,0829.5,5.00,0.00,26.3,25.4,00.0,35.3,28.1,08.9,0000.0,0001.36,0000.73,0000.50
2021-11-26 11:28:00,,0829.5,5.00,0.00,26.3,25.4,00.0,35.3,28.1,08.9,0000.0,0001.31,0000.72,0000.49
2021-11-26 11:29:00,,0829.5,5.00,0.00,26.3,25.4,00.0,35.3,28.1,09.0,0000.0,0001.30,0000.72,0000.49
2021-11-26 11:30:00,,0829.5,5.00,0.00,26.3,25.4,00.0,35.3,28.1,08.9,0000.0,0001.22,0000.71,0000.49
2021-11-26 11:31:00,,0829.5,4.99,0.00,26.3,25.4,00.0,35.3,28.1,09.0,0000.0,0001.20,0000.71,0000.49
2021-11-26 11:32:00,,0829.5,5.01,0.00,26.3,25.4,00.0,35.3,28.1,09.0,0000.0,0001.21,0000.72,0000.48
2021-11-26 11:33:00,,0829.5,4.99,0.00,26.3,25.4,00.0,35.3,28.1,09.0,0000.0,0002.27,0000.72,0000.47
2021-11-26 11:34:00,,0829.5,5.00,0.00,26.3,25.4,00.0,35.3,28.1,09.0,0000.0,0002.43,0000.73,0000.46
2021-11-26 11:35:00,,0829.5,5.00,0.00,26.3,25.4,00.0,35.3,28.1,09.0,0000.0,0002.47,0000.75,0000.47
2021-11-26 11:36:00,,0829.5,5.00,0.00,26.3,25.4,00.0,35.3,28.1,09.0,0000.0,0002.49,0000.75,0000.47
2021-11-26 11:37:00,,0829.5,5.01,0.00,26.3,25.4,00.0,35.3,28.0,09.0,0000.0,0002.50,0000.74,0000.47
2021-11-26 11:38:00,,0829.5,5.00,0.00,26.3,25.4,00.0,35.3,28.1,09.0,0000.0,0002.52,0000.73,0000.47
2021-11-26 11:39:00,,0829.5,5.01,0.00,26.3,25.4,00.0,35.3,28.1,09.0,0000.0,0002.53,0000.72,0000.46
2021-11-26 11:40:00,,0829.5,5.00,0.00,26.3,25.3,00.0,35.3,28.0,09.0,0000.0,0002.51,0000.72,0000.46
2021-11-26 11:41:00,,0829.6,5.01,0.00,26.3,25.3,00.0,35.3,28.0,09.0,0000.0,0002.55,0000.74,0000.46
2021-11-26 11:42:00,,0829.5,4.99,0.00,26.2,25.3,00.0,35.3,28.0,09.0,0000.0,0002.55,0000.73,0000.46
2021-11-26 11:43:00,,0829.5,5.01,0.00,26.2,25.3,00.0,35.3,27.9,09.1,0000.0,0002.58,0000.73,0000.46
2021-11-26 11:44:00,,0829.5,4.99,0.00,26.2,25.3,00.0,35.3,27.9,09.1,0000.0,0001.57,0000.72,0000.45
2021-11-26 11:45:00,,0829.6,5.01,0.00,26.2,25.3,00.0,35.3,28.0,09.2,0000.0,0001.25,0000.70,0000.45
2021-11-26 11:46:00,,0829.6,5.01,0.00,26.2,25.3,00.0,35.3,28.0,09.2,0000.0,0001.24,0000.69,0000.43
2021-11-26 11:47:00,,0829.6,4.98,0.00,26.2,25.3,00.0,35.3,28.0,09.2,0000.0,0001.19,0000.67,0000.42
2021-11-26 11:48:00,,0829.6,5.01,0.00,26.2,25.3,00.0,35.2,28.0,09.2,0000.0,0001.20,0000.67,0000.42
2021-11-26 11:49:00,,0829.5,4.99,0.00,26.2,25.3,00.0,35.2,27.9,09.2,0000.0,0001.25,0000.67,0000.41
2021-11-26 11:50:00,,0829.5,5.00,0.00,26.2,25.3,00.0,35.2,27.9,09.2,0000.0,0001.34,0000.68,0000.41
2021-11-26 11:51:00,,0829.5,4.99,0.00,26.2,25.3,00.0,35.2,27.9,09.2,0000.0,0001.40,0000.70,0000.42
2021-11-26 11:52:00,,0829.5,5.02,0.00,26.2,25.3,00.0,35.2,27.9,09.2,0000.0,0001.42,0000.71,0000.41
2021-11-26 11:53:00,,0829.5,4.99,0.00,26.2,25.3,00.0,35.2,27.9,09.2,0000.0,0001.41,0000.70,0000.40
2021-11-26 11:54:00,,0829.5,5.01,0.00,26.2,25.3,00.0,35.2,28.0,09.2,0000.0,0001.29,0000.65,0000.40
2021-11-26 11:55:00,,0829.5,4.99,0.00,26.2,25.3,00.0,35.2,28.0,09.2,0000.0,0001.27,0000.63,0000.39
2021-11-26 11:56:00,,0829.5,5.01,0.00,26.2,25.3,00.0,35.2,28.0,09.2,0000.0,0001.34,0000.63,0000.40
2021-11-26 11:57:00,,0829.5,4.98,0.00,26.2,25.3,00.0,35.2,28.0,09.2,0000.0,0001.30,0000.62,0000.40
2021-11-26 11:58:00,,0829.5,5.00,0.00,26.2,25.3,00.0,35.2,28.0,09.2,0000.0,0001.33,0000.64,0000.41
2021-11-26 11:59:00,,0829.5,5.00,0.00,26.2,25.3,00.0,35.2,28.0,09.2,0000.0,0001.33,0000.63,0000.41
